This is the latest recevied weather packets stored in our database for station/object MM1PTT-13. If no packets are shown the sender has not sent any weather packets the latest 1 day(s).
| Time | Temp. | Humidity | Pressure | Rain* | Wind** | Luminosity | Snow |
|---|---|---|---|---|---|---|---|
| 1778102742 | 7.78° C | 74% | 984.4 hPa | 0 mm | - | 0 W/m² | - |
| 1778102444 | 7.78° C | 74% | 984.4 hPa | 0 mm | - | 0 W/m² | - |
| 1778101843 | 7.22° C | 74% | 984.4 hPa | 0 mm | - | 0 W/m² | - |
| 1778101243 | 7.78° C | 74% | 984.4 hPa | 0 mm | - | 0 W/m² | - |
| 1778099443 | 8.33° C | 69% | 984.4 hPa | 0 mm | - | 1 W/m² | - |
| 1778099145 | 8.33° C | 69% | 984.8 hPa | 0 mm | - | 1 W/m² | - |
| 1778098543 | 8.89° C | 68% | 984.4 hPa | 0 mm | - | 2 W/m² | - |
| 1778097345 | 8.89° C | 67% | 984.4 hPa | 0 mm | - | 3 W/m² | - |
| 1778097043 | 8.89° C | 67% | 984.4 hPa | 0 mm | - | 4 W/m² | - |
| 1778096744 | 8.89° C | 66% | 984.4 hPa | 0 mm | - | 4 W/m² | - |
| 1778096145 | 8.89° C | 65% | 984.4 hPa | 0 mm | - | 8 W/m² | - |
| 1778095843 | 9.44° C | 65% | 984.4 hPa | 0 mm | - | 12 W/m² | - |
| 1778094945 | 9.44° C | 65% | 984.8 hPa | 0 mm | - | 22 W/m² | - |
| 1778094343 | 9.44° C | 66% | 984.8 hPa | 0 mm | - | 23 W/m² | - |
| 1778094043 | 9.44° C | 65% | 984.4 hPa | 0 mm | - | 20 W/m² | - |
| 1778093444 | 9.44° C | 64% | 984.4 hPa | 0 mm | - | 23 W/m² | - |
| 1778090443 | 10° C | 64% | 984.4 hPa | 0 mm | - | 34 W/m² | - |
| 1778089545 | 10° C | 61% | 984.1 hPa | 0 mm | - | 48 W/m² | - |
| 1778089244 | 10° C | 61% | 984.4 hPa | 0 mm | - | 56 W/m² | - |
| 1778088943 | 10.56° C | 60% | 984.4 hPa | 0 mm | - | 62 W/m² | - |
| 1778088043 | 10.56° C | 58% | 984.8 hPa | 0 mm | - | 88 W/m² | - |
| 1778087144 | 10.56° C | 57% | 984.8 hPa | 0 mm | - | 116 W/m² | - |
| 1778085643 | 11.11° C | 56% | 984.8 hPa | 0 mm | - | 205 W/m² | - |
| 1778085043 | 11.11° C | 55% | 984.8 hPa | 0 mm | - | 163 W/m² | - |
| 1778084143 | 11.11° C | 54% | 984.8 hPa | 0 mm | - | 97 W/m² | - |
* Rain latest hour (hover to see other rain measurements)
** Current wind speed in m/s (hover to see current wind gust speed)